sat.trackr.live / text

‹ back to catalog

KUIPER-00521

NORAD 68891 · 2026-095AD

PAYLOAD ACTIVE UNKNOWN

§ Identity

Operator
Country
US
Launch date
2026-04-28
Launch site
AFETR
Launch vehicle
Mass (kg)
RCS (m²)

External: N2YO · Heavens-Above · Gunter

§ Orbital elements

Epoch: 2026-09-20T04:35:58.540992Z

Period
97.30 min
Inclination
51.9024°
Eccentricity
0.0000723
Mean motion
14.79928327 rev/d
Perigee alt
629.0 km
Apogee alt
630.1 km
Semi-major
7,007.7 km
B*
2.9884e-4
RAAN
171.8202°
Arg perigee
92.1202°
Mean anomaly
267.9843°
Rev number
2,194

§ Raw data

KUIPER-005211 68891U 26095AD  26263.19164978  .00002057  00000+0  29884-3 0  99952 68891  51.9024 171.8202 0000723  92.1202 267.9843 14.79928327 21941

JSON: /api/v1/satellites/68891 · /tle

For live sub-satellite position, see the globe view (requires WebGL).

§ Visibility from observer

Set your observer location to see the next 7 days of passes ≥ 10°. The values pass through the URL so the page stays shareable.

No JS? Fill the form by hand. The geolocation button needs JavaScript.